logo
Rechercher aéroport 
image banner adimage banner adimage banner ad
image banner ad

6PN5 - Sam's Field

Situé à Bradford, United States

ICAO - 6PN5, IATA -

Données fournies par Airmate  

Information générale

Coordonnées: N41°54'27" W78°37'44"
Élévation : 1540 feet MSL.
Variation magnétique : -10° East
Voir autres Aéroports à Pennsylvania

Données opérationnelles

Special qualification required
Heure actuelle UTC:
Heure actuelle locale:
Météo à : KBFD - Bradford Rgnl ( 12 km )
METAR: KBFD 261553Z AUTO 27009G21KT 210V300 10SM FEW019 SCT026 BKN035 15/08 A2965 RMK AO2 SLP033 T01500083
TAF: KBFD 261536Z 2616/2712 26012G20KT P6SM VCSH BKN025 FM261800 26012G20KT P6SM VCSH BKN035 FM270000 26010G15KT P6SM VCSH BKN025 FM270600 25010KT P6SM VCSH BKN015
Voir NOTAMs / SUP AIP / TFR affectant cet aéroport [VIEW]
Fréquences de communication: [VIEW]

Pistes:

Identifiant RWYQFULongueur (ft)Largeur (ft)SurfaceLDA (ft)
091300100GRASS
271300100GRASS

Coordonnées de l'aéroport

Adresse: Bradford United States

Vue satellite de 6PN5